Вернуться в каталог

DELTA 1 DEB

АктивенPO
NORAD 21324·DEBRIS·🇺🇸 United States

Запущен Jun 12, 1975 с Vandenberg Space Force Base

Loading…

Ближайшие Пролёты (ближайшие 24 часа)

TLE

СвежийSource: Space-Track

Эпоха: Sep 14, 2026, 10:24 UTC

1 21324U 75052AS  26257.43366811  .00000714  00000-0  16686-2 0  9996
2 21324  99.5697 240.6264 0313648  42.0075 108.0915 13.11053803677713

Отслеживайте DELTA 1 DEB в реальном времени с AllMySat

Download on the App Store